Wind_Speed
65 65 65 66 68 69 71 71 72 73 75 77 79 81 82 82 82 83 83 82 81 82 83 86 88 90 90 91 91 89 86 83 82 81 82 83 83 85 86 87 87 87 86 85 84 84 84 84 84 85 85 85 85 85 85 85 85 85 84 83 83 82 82 82 81 79 78 78 78 77 77 77 77 76 75 74 74 74 73 73 73 73 72 71 70
67 68 68 69 70 71 72 72 72 72 72 73 75 76 77 77 79 80 81 82 82 83 83 85 87 89 89 90 92 93 94 93 91 87 85 84 83 83 84 86 87 89 89 89 88 87 87 87 87 87 87 86 86 87 88 88 89 89 89 89 88 88 88 87 87 85 83 82 82 81 81 81 80 79 79 78 77 77 77 76 76 76 76 75 74
72 73 74 75 75 76 76 76 76 76 76 77 78 79 80 80 81 82 83 85 86 88 89 89 90 91 92 92 92 93 94 96 96 95 93 91 89 87 86 86 87 88 89 89 89 88 88 88 88 88 89 89 88 89 90 91 91 91 91 92 93 93 93 93 93 92 90 88 87 86 85 85 84 83 83 82 81 80 80 79 79 79 78 78 77
80 82 83 83 83 83 83 83 83 83 84 84 85 87 88 88 89 89 90 91 92 94 96 97 97 97 97 97 97 97 97 98 98 99 99 98 96 94 92 91 91 90 90 89 89 88 88 87 88 89 90 90 90 90 92 93 94 93 92 92 93 94 95 96 96 97 96 95 93 91 89 88 86 86 86 85 85 84 83 82 81 81 81 81 80
85 87 88 89 89 90 90 90 91 91 92 92 93 94 95 96 97 97 98 99 98 98 99 100 101 101 101 101 101 101 101 101 102 102 103 104 103 102 100 98 97 96 95 94 92 91 90 89 88 89 90 91 91 91 92 94 96 96 95 93 93 93 93 95 96 98 99 99 97 95 93 92 90 88 87 87 87 86 85 84 83 83 83 83 83
89 90 92 93 94 95 95 96 96 97 97 98 98 98 98 98 98 98 99 100 100 100 100 100 101 101 102 103 103 103 103 104 105 106 107 108 108 108 107 105 103 102 100 99 98 97 96 94 92 91 92 93 93 93 94 94 96 97 97 96 94 94 93 93 94 95 97 98 98 97 96 95 93 91 89 88 88 87 87 87 86 85 85 84 84
91 93 94 95 96 96 97 98 98 99 99 100 100 100 100 100 99 99 99 99 99 99 100 100 101 102 103 103 104 104 104 105 106 108 109 111 111 111 111 110 109 108 106 105 104 102 101 99 98 97 96 96 96 96 96 96 96 97 97 97 96 95 95 94 94 95 95 96 96 97 97 97 97 95 93 91 89 88 88 88 87 86 85 84 83
91 92 93 94 95 96 96 97 98 99 99 100 100 100 100 101 101 101 101 101 101 101 101 101 102 102 103 104 105 105 106 106 107 108 110 111 113 114 114 114 113 112 111 110 109 107 106 105 103 102 102 101 100 99 99 99 99 99 99 99 99 99 98 97 96 95 95 95 96 96 96 97 97 97 96 95 93 90 89 88 87 85 85 84 84
91 92 92 93 94 95 96 97 98 98 99 100 100 101 101 102 102 103 103 104 104 104 104 104 104 104 104 105 105 106 106 107 108 109 110 111 112 114 115 116 116 116 115 113 112 112 111 110 109 108 107 106 106 105 104 104 104 103 102 102 103 104 103 102 100 98 97 97 97 97 98 98 98 97 96 96 95 93 91 90 89 87 87 86 85
91 92 93 94 95 95 97 98 99 100 101 101 102 102 103 103 104 104 105 105 106 106 107 107 108 108 108 108 108 108 108 108 109 111 112 112 113 114 115 116 117 118 118 117 116 115 114 114 114 113 112 112 111 110 109 109 108 108 106 106 106 107 108 108 107 105 102 100 99 99 100 100 99 98 97 95 94 94 93 93 91 89 89 88 86
93 94 94 95 96 97 98 99 99 100 100 100 101 101 101 101 102 102 103 104 105 106 106 107 108 109 110 110 111 111 111 111 112 113 114 115 116 117 117 116 117 118 119 120 120 119 118 117 117 117 117 116 115 115 114 113 112 112 111 110 110 110 111 112 112 111 110 107 104 102 102 101 100 101 101 98 96 95 94 94 93 93 92 90 88
93 94 94 95 95 95 95 95 96 96 95 95 95 95 95 95 95 95 96 97 98 99 100 102 103 105 106 107 108 109 110 111 112 114 115 116 118 119 119 119 118 118 119 120 120 121 121 121 120 120 120 120 119 118 117 116 115 115 115 114 113 113 114 115 115 115 115 114 112 109 106 104 102 103 103 102 101 100 98 97 97 96 95 94 91
90 90 89 88 88 87 87 87 87 87 87 86 86 86 86 86 86 87 87 88 88 89 91 92 93 95 97 99 100 101 102 104 106 108 110 113 115 117 118 119 120 120 120 121 121 122 122 123 123 122 122 122 122 122 121 119 118 117 117 118 117 117 117 117 118 118 118 117 117 115 112 110 107 106 106 106 106 105 103 102 101 100 100 98 95
82 81 80 79 78 78 77 77 77 78 78 78 78 79 79 80 80 81 82 82 83 84 84 85 86 87 88 90 91 91 92 93 95 98 100 103 106 109 111 114 115 117 118 120 121 122 123 124 125 125 125 125 125 125 124 124 123 121 121 121 121 121 120 119 119 119 119 119 118 116 114 113 112 111 111 112 111 109 108 108 107 106 105 103 100
73 72 71 71 71 71 71 72 72 73 73 74 75 76 77 77 78 79 79 80 80 80 81 81 82 82 83 84 84 84 84 85 87 89 91 93 95 98 100 103 105 107 108 111 113 115 118 120 122 124 125 126 127 127 127 127 126 125 125 124 124 124 123 122 121 120 120 119 118 116 114 112 112 112 112 114 115 114 113 113 113 113 111 109 106
67 67 67 67 68 69 70 70 71 72 73 74 75 75 76 76 76 77 77 76 77 77 77 77 77 77 77 77 77 76 76 78 81 82 83 84 86 88 89 91 92 93 95 97 99 102 105 108 111 114 117 120 121 122 123 124 124 125 126 126 127 127 126 126 125 122 121 119 118 117 115 113 111 111 111 112 113 115 115 116 117 117 117 115 112
64 64 65 67 68 69 70 71 72 73 74 74 74 74 74 74 74 74 73 72 72 73 73 73 73 73 72 73 73 72 72 74 76 77 77 78 79 80 80 81 81 82 83 84 86 88 90 93 96 100 104 106 109 111 113 116 118 120 122 124 125 127 127 128 127 125 122 119 116 115 114 112 111 111 111 111 111 112 114 115 116 117 118 118 116
63 64 65 67 69 70 72 72 73 73 74 74 73 73 72 72 71 71 71 71 71 72 72 71 72 72 72 73 73 72 71 71 73 73 73 74 75 75 74 74 74 75 75 76 78 80 81 83 86 89 91 93 95 98 101 105 108 111 114 116 118 121 123 124 125 124 122 119 116 114 113 111 110 109 109 110 111 112 113 113 113 114 115 116 117
63 65 67 69 70 71 72 73 73 73 73 72 71 71 70 70 70 70 71 72 72 72 72 71 70 70 70 70 70 69 68 67 68 68 66 66 66 66 65 65 65 66 67 68 70 72 73 75 78 81 83 85 87 89 92 95 98 101 103 106 109 111 112 114 115 117 117 117 115 114 112 111 110 109 108 108 109 111 112 112 111 111 113 113 113
64 66 68 69 70 71 72 73 73 72 71 70 69 69 69 69 70 70 71 71 71 70 69 67 65 65 65 64 63 62 61 59 58 57 56 55 55 55 54 55 55 55 57 58 60 62 64 66 68 71 74 76 79 82 84 88 91 93 95 97 99 100 100 101 103 105 108 111 112 111 109 107 107 107 108 109 109 109 111 111 110 110 111 111 110
66 67 68 69 71 72 72 72 71 70 69 68 68 68 69 69 69 69 69 68 68 66 64 62 60 59 58 56 55 54 53 51 49 49 48 47 48 48 48 48 49 50 52 53 55 57 59 61 62 65 67 68 70 73 76 79 82 85 88 90 91 92 93 94 95 96 99 102 105 107 107 106 104 103 104 105 107 108 109 110 110 109 110 110 110
66 67 69 70 71 71 71 70 69 68 67 67 67 67 68 68 67 67 66 65 63 61 58 56 54 52 50 50 49 48 48 46 45 44 43 43 43 44 46 47 49 51 52 54 56 58 60 61 63 64 66 67 67 69 70 72 75 77 79 80 82 84 86 88 91 92 94 96 98 100 102 103 103 101 100 99 100 102 105 107 109 109 110 111 111
66 68 69 70 70 70 69 68 67 67 67 67 67 67 66 65 64 63 61 60 57 54 52 50 48 46 45 44 45 44 44 43 42 40 39 40 41 43 45 46 47 49 51 52 54 56 58 60 61 63 65 67 68 69 70 70 71 72 73 74 75 76 78 80 83 85 88 91 93 95 96 97 98 98 98 96 94 94 97 101 105 107 109 110 111
67 68 69 70 69 68 67 67 67 67 67 67 66 64 63 61 59 57 55 54 51 49 47 46 44 42 40 40 40 41 40 39 38 38 38 39 41 43 44 44 45 46 46 46 47 48 51 53 54 55 57 60 63 65 67 68 69 69 70 72 73 74 74 75 76 77 79 81 84 87 89 91 93 93 93 92 90 88 90 94 99 103 105 108 109
67 69 69 68 67 67 66 67 67 67 67 66 63 61 59 56 52 49 49 49 47 45 43 42 40 38 37 37 38 38 37 36 36 37 38 40 42 43 44 44 44 44 43 42 41 41 43 45 47 48 50 51 53 55 58 61 64 65 67 68 70 72 73 73 73 73 74 74 75 77 79 82 84 87 87 88 88 88 88 89 91 95 100 103 105
68 68 67 67 67 66 66 66 66 66 65 63 60 58 54 49 45 44 45 45 44 42 40 38 37 36 37 37 36 36 36 36 36 37 39 41 43 45 46 46 46 45 44 43 42 41 41 41 43 45 47 49 51 52 53 55 57 60 62 64 66 68 70 71 72 73 73 73 72 72 73 74 74 77 80 84 86 88 88 87 87 90 93 97 100
67 67 66 66 66 66 65 65 64 64 62 59 56 52 47 43 41 42 43 43 41 39 38 37 37 38 37 37 36 35 36 36 36 38 40 42 44 46 47 47 47 47 46 46 46 45 45 45 46 46 47 48 51 53 55 57 59 60 61 62 63 65 66 67 69 70 71 72 71 71 71 72 72 71 73 76 80 82 84 86 87 88 89 92 96
66 66 66 65 65 64 63 63 62 61 58 55 50 45 41 40 40 41 42 41 39 37 37 37 38 38 38 37 36 36 37 38 38 39 41 44 45 47 47 47 46 46 46 46 46 46 47 48 49 50 50 51 52 54 56 59 62 64 65 66 66 66 67 67 67 67 67 68 68 68 70 72 72 71 70 71 73 74 77 81 85 87 88 90 93
65 65 64 63 62 62 61 61 60 58 55 50 44 39 38 40 40 40 40 41 38 36 35 35 36 36 37 37 37 36 37 38 40 41 44 46 48 47 46 45 45 45 45 45 45 45 46 46 47 49 50 52 54 56 59 61 62 64 66 67 68 68 68 68 67 68 67 67 66 65 67 69 70 70 70 70 68 68 70 74 78 82 86 89 91
63 62 61 61 60 59 59 59 58 55 51 43 37 35 38 41 41 39 39 39 38 36 34 34 34 34 35 35 36 38 39 41 42 44 44 44 44 43 42 42 42 42 43 43 44 44 45 46 47 49 50 52 55 58 60 61 62 62 63 65 65 66 66 66 65 66 67 67 66 65 65 66 67 68 69 69 67 66 67 70 73 76 81 85 88
60 60 59 59 59 59 59 58 55 51 45 38 33 33 35 38 40 40 39 38 38 37 35 34 33 33 34 34 34 35 37 38 38 38 38 38 38 38 38 39 40 41 41 42 43 45 46 47 48 50 52 54 56 58 59 59 58 58 59 60 61 62 63 63 64 64 64 64 64 65 65 65 66 66 68 68 67 66 66 67 69 72 75 80 83
59 59 59 59 58 58 57 55 51 45 39 34 32 33 33 32 35 38 40 40 40 38 37 36 34 34 34 34 33 33 34 34 34 35 36 36 37 38 39 40 41 42 44 45 46 47 49 50 51 52 54 55 57 58 57 55 53 53 53 54 55 57 59 60 61 62 62 62 62 62 64 65 65 65 67 67 67 67 66 65 65 67 69 73 77
60 60 59 59 58 57 55 51 46 39 34 32 32 32 32 31 32 34 37 39 41 41 40 39 37 35 35 35 35 35 35 35 36 37 38 38 39 40 41 43 44 45 46 47 47 49 50 51 52 54 55 56 57 57 54 51 49 48 48 48 50 52 54 56 57 58 59 59 60 60 62 63 64 65 66 67 67 68 66 63 62 63 64 66 70
61 61 60 59 58 55 51 46 40 35 31 31 31 31 31 32 33 34 34 36 38 40 41 41 40 39 37 37 38 38 38 38 38 39 39 40 41 42 42 43 45 46 47 47 48 49 51 52 53 54 55 56 56 55 51 48 46 44 43 43 45 47 49 52 54 55 56 57 58 59 60 62 63 64 65 65 66 68 67 64 62 63 63 62 64
62 62 61 59 55 51 46 40 35 31 30 30 30 30 31 32 34 35 35 35 35 37 38 40 40 40 39 40 40 40 40 40 40 41 41 41 42 43 43 44 44 46 47 48 48 49 51 52 53 54 55 55 55 53 49 46 44 43 42 41 41 43 45 48 50 52 53 55 56 57 58 59 61 63 65 65 64 65 66 64 63 63 62 60 60
63 61 59 55 50 45 39 34 31 29 28 28 29 30 31 33 34 35 35 35 35 36 36 38 39 40 40 40 41 42 42 42 42 42 43 43 43 43 43 44 44 45 46 47 47 48 49 51 52 52 53 53 52 50 47 44 43 42 42 41 41 41 43 45 47 49 51 52 53 54 55 56 58 60 63 64 63 63 63 63 63 64 63 61 59
61 58 54 49 44 38 33 30 28 27 27 27 28 30 32 34 35 35 34 35 35 35 36 37 38 39 40 41 41 42 43 43 44 44 44 45 45 45 45 45 44 45 45 46 46 46 47 49 50 50 50 50 49 46 43 41 40 40 40 40 40 40 41 42 44 46 47 48 48 49 50 51 53 55 58 61 62 62 61 61 62 64 63 61 59
56 52 48 43 37 32 29 27 26 26 26 27 28 30 33 34 34 34 34 35 35 36 36 37 37 38 40 41 42 43 44 45 46 47 47 47 47 47 47 47 46 46 46 45 45 44 44 45 47 47 47 47 45 42 40 39 38 37 36 37 37 38 39 39 40 42 43 43 43 43 44 45 47 49 52 55 57 58 59 58 60 62 62 60 58
51 48 43 36 30 27 26 25 24 25 26 27 29 31 33 33 33 33 35 36 36 37 37 38 38 39 40 42 43 45 46 47 49 49 49 49 49 48 48 47 46 46 45 44 43 42 41 41 43 44 44 43 41 39 37 36 36 35 34 33 33 33 34 35 36 37 38 38 37 37 38 39 41 44 46 48 50 52 54 56 58 60 59 57 56
48 44 36 29 26 25 24 23 23 24 25 27 30 31 32 31 32 33 35 36 37 37 38 39 40 41 42 43 45 46 48 49 50 50 50 50 49 48 47 45 44 43 42 41 40 38 36 37 39 40 40 39 37 36 34 34 34 33 32 31 29 29 30 30 31 32 32 33 33 33 33 35 36 38 41 42 44 47 50 52 55 57 57 56 55
43 36 29 25 24 23 22 22 23 25 26 28 29 30 30 31 32 33 35 36 37 38 39 40 42 43 44 45 47 48 49 50 51 51 51 50 49 47 45 43 41 40 39 38 36 34 32 33 35 36 36 36 35 34 32 32 32 31 30 29 28 27 28 28 28 27 27 27 28 29 30 31 33 35 36 38 40 43 46 49 52 54 54 54 53
36 29 25 23 22 22 22 23 24 25 27 28 28 28 29 31 32 34 35 36 37 39 40 42 43 45 46 48 49 50 50 51 51 51 50 49 48 45 42 40 38 37 36 35 33 31 30 30 31 32 33 33 33 33 32 31 30 30 29 28 28 27 27 27 26 25 23 22 22 24 26 28 30 32 33 35 37 39 42 46 48 50 51 51 50
28 24 23 22 21 21 23 24 25 25 26 27 27 28 29 31 32 33 34 36 37 39 41 42 44 46 47 48 49 49 49 49 49 48 47 46 44 42 39 37 35 34 33 32 30 28 28 28 29 30 31 31 32 32 31 30 29 29 29 28 28 28 28 27 25 24 22 20 19 19 21 24 27 30 31 33 34 37 40 42 45 47 48 48 49
24 22 22 21 21 22 23 24 24 25 25 25 26 27 29 30 32 33 34 36 37 39 41 42 44 45 46 47 47 47 46 45 44 44 43 41 39 37 35 34 33 32 32 30 28 27 27 27 28 29 30 30 31 31 31 30 29 28 27 27 27 27 27 26 25 23 21 20 18 17 17 19 21 25 28 30 32 34 37 40 42 45 46 47 47
21 21 20 20 21 22 23 23 23 24 24 25 26 27 28 30 31 33 34 36 38 39 41 42 43 44 45 45 44 43 43 42 41 40 39 38 36 35 34 33 32 31 30 28 27 27 26 27 27 27 28 29 29 30 30 30 30 29 28 27 26 25 25 24 23 22 20 19 18 17 17 17 17 18 21 25 28 31 34 37 40 42 43 45 45
20 20 20 20 21 21 21 22 22 23 24 25 26 27 28 30 31 33 35 36 38 39 40 41 42 43 43 42 41 41 40 40 39 37 35 35 34 33 33 32 31 29 28 26 26 26 26 25 25 26 26 27 27 28 28 29 29 29 29 28 26 25 24 22 21 20 18 17 16 15 15 16 16 17 18 20 23 26 29 32 35 37 39 41 41
19 19 19 20 20 20 20 21 22 23 23 24 26 27 28 30 31 33 34 36 37 39 40 41 41 41 40 39 39 39 39 38 36 33 32 31 32 32 32 32 30 27 26 25 24 25 25 24 24 24 24 25 25 26 26 26 26 27 27 27 27 26 24 22 21 19 18 16 15 14 14 14 14 16 17 18 20 22 25 27 30 32 34 36 36
18 18 18 19 19 19 20 21 21 22 23 24 25 27 28 30 31 33 34 36 37 38 39 40 40 39 38 37 37 37 37 37 34 31 29 29 30 31 31 31 29 26 24 24 23 23 23 23 23 23 23 23 23 23 24 24 24 25 25 25 25 25 25 23 21 19 17 16 14 14 14 14 13 14 15 17 18 20 22 24 26 28 30 31 32
17 17 17 17 18 19 19 20 21 22 23 24 26 27 29 30 31 33 34 35 37 38 38 38 38 37 36 36 35 35 36 35 32 29 27 27 28 29 29 29 29 27 24 23 23 23 23 23 22 22 22 22 22 22 22 22 22 23 23 23 22 22 22 22 20 18 15 13 12 13 14 13 13 12 13 14 16 19 20 22 24 25 27 28 28
16 16 17 17 17 18 19 20 21 22 23 24 26 27 29 30 31 33 34 35 36 37 37 37 36 35 35 34 34 34 34 33 31 28 26 26 27 27 27 27 27 27 26 24 23 22 22 22 22 22 22 22 21 21 20 20 20 20 20 20 20 19 19 19 19 17 14 12 11 12 14 13 12 12 12 13 15 17 19 21 22 23 24 25 26
15 16 16 17 17 18 19 20 21 22 23 25 26 27 29 30 31 33 34 35 36 36 36 35 35 34 33 33 33 32 32 32 30 27 25 25 26 26 27 26 26 26 25 25 24 23 22 21 21 21 21 21 20 20 19 18 18 17 17 18 18 18 17 17 17 16 14 13 12 12 12 11 10 11 13 14 16 16 18 19 21 22 23 24 25
Wind_Direction
262 261 260 259 259 259 260 260 260 260 261 261 261 262 263 264 265 266 267 269 269 269 268 266 265 265 265 265 265 265 264 263 262 261 261 261 261 261 261 260 260 260 260 260 260 260 260 260 259 259 259 258 259 259 259 259 259 258 258 258 258 259 259 259 259 258 258 259 259 259 259 259 259 259 259 258 258 258 258 258 259 259 260 260 260
259 259 259 260 261 261 262 264 264 264 264 264 264 265 265 266 266 267 267 268 269 268 267 266 265 266 266 266 266 266 266 267 266 265 263 262 261 261 260 259 259 259 259 259 259 259 259 259 259 259 259 259 259 259 259 259 259 259 259 259 259 259 259 259 259 258 258 258 259 258 258 259 259 259 259 258 257 257 257 258 258 258 259 259 259
263 264 265 267 268 268 269 270 270 270 270 269 269 270 271 271 271 270 270 271 271 271 271 270 269 269 268 267 267 267 267 268 269 269 269 267 265 263 262 261 260 259 258 258 258 258 258 258 258 258 259 259 260 260 260 259 259 258 258 259 259 259 259 259 259 259 258 258 258 258 258 258 258 258 258 258 257 257 257 258 258 258 259 259 259
270 271 271 272 273 274 274 274 274 274 274 274 274 274 275 275 275 274 273 272 273 273 273 273 272 272 271 270 269 269 268 268 269 269 271 271 270 268 266 265 263 262 261 260 259 259 259 259 258 257 257 258 259 260 260 260 259 258 258 258 258 258 259 259 259 259 258 258 258 258 257 257 257 257 257 257 257 257 257 257 257 258 258 259 259
273 274 274 275 276 276 277 277 277 277 277 277 277 276 276 276 276 276 275 275 274 273 272 272 272 271 271 271 271 271 270 270 270 270 270 271 271 270 269 268 266 265 264 263 262 262 262 262 261 260 259 258 258 258 258 259 259 259 258 258 257 257 257 258 259 259 259 258 258 257 257 256 256 256 256 257 257 257 257 257 257 257 257 258 258
273 274 275 275 276 277 278 278 278 278 278 278 278 277 277 277 277 277 276 276 276 275 274 273 273 272 272 271 271 271 271 271 271 272 272 272 272 272 271 270 269 267 266 266 265 264 264 264 264 264 263 261 260 260 259 258 258 258 258 258 258 258 257 257 257 257 258 258 257 257 257 256 256 255 255 256 256 256 256 256 256 256 257 257 257
275 275 276 277 277 278 278 278 279 278 278 278 278 278 278 277 277 277 276 276 275 275 274 274 273 273 273 272 272 272 271 271 271 271 272 272 273 273 273 272 271 270 268 267 267 266 266 266 265 265 265 264 263 262 263 262 261 259 259 258 259 259 259 258 257 256 256 256 256 257 257 257 257 256 256 256 256 256 257 257 257 256 256 256 255
277 277 277 278 278 278 278 278 278 278 278 278 278 278 278 277 277 277 276 276 275 275 274 273 273 273 273 272 272 272 272 271 271 271 271 271 272 272 272 272 272 272 271 270 269 268 267 267 267 267 267 266 265 265 265 266 265 263 262 261 261 260 260 259 259 258 257 255 255 256 256 257 257 257 257 257 257 257 257 257 257 256 255 254 254
278 277 277 277 277 277 278 278 278 278 278 278 278 278 277 277 277 277 277 276 276 276 275 274 274 273 272 272 272 272 272 271 271 271 271 271 271 271 271 271 272 272 271 271 271 270 270 269 268 268 268 268 267 266 266 267 267 267 266 265 264 263 262 261 261 260 259 257 256 255 255 255 256 256 256 256 257 257 257 257 256 256 255 254 253
278 278 278 278 278 278 278 278 278 278 278 278 278 277 277 277 276 276 276 276 275 275 275 275 274 273 273 272 272 271 271 271 271 271 271 271 271 270 270 271 271 271 271 271 271 271 271 271 270 270 269 269 268 268 268 268 268 268 267 267 266 266 265 264 263 263 262 260 258 256 255 254 254 254 255 255 255 255 255 256 256 255 254 253 252
279 279 279 279 278 278 278 278 278 278 278 278 278 278 277 277 277 276 276 275 275 275 274 274 273 273 272 272 271 271 271 271 270 270 271 271 271 271 270 270 270 270 271 271 271 270 270 270 270 270 270 269 269 269 269 269 268 268 268 268 267 267 266 265 265 265 264 263 261 259 258 256 254 254 254 253 253 254 254 255 255 254 254 253 252
281 280 280 280 280 280 280 280 280 280 280 280 280 280 280 279 279 279 278 278 277 276 276 275 275 274 274 273 272 271 271 270 270 270 269 269 269 269 269 269 269 269 269 270 270 270 270 270 270 270 269 269 269 269 269 269 269 269 269 268 268 267 266 266 266 265 265 265 263 261 260 258 257 256 256 255 254 255 254 254 254 254 254 253 252
282 283 283 283 283 283 283 283 283 283 283 283 283 283 283 283 282 282 281 281 280 279 279 278 278 277 276 275 274 274 273 272 271 271 270 269 269 268 268 268 268 267 268 268 268 268 269 269 270 270 270 270 270 269 269 269 268 268 268 268 268 267 266 266 265 265 265 265 264 263 262 261 260 259 259 258 257 256 256 256 256 255 254 254 253
284 285 286 286 286 286 286 286 286 286 286 286 286 286 286 285 285 284 284 283 283 282 281 281 280 279 279 278 277 276 276 275 274 273 272 271 270 270 269 268 268 267 267 267 267 266 266 267 267 268 268 269 269 269 269 269 268 267 267 266 266 267 267 266 265 265 265 265 264 264 263 263 262 261 261 261 260 259 258 257 257 257 256 255 254
287 287 288 288 288 289 289 289 289 289 289 289 289 288 288 288 287 287 286 286 285 285 284 283 282 281 281 280 279 279 278 277 276 275 274 273 272 272 271 270 269 268 268 267 267 267 266 266 265 265 265 266 266 267 268 268 268 267 266 265 265 265 265 266 266 265 265 264 264 263 263 262 262 262 261 262 261 260 259 258 258 258 258 257 256
288 289 289 289 290 290 290 291 291 291 291 291 291 290 290 289 289 288 288 288 287 287 286 285 284 284 283 283 282 281 280 279 277 276 276 275 274 274 273 273 272 271 270 269 269 268 267 267 266 265 265 264 264 265 266 266 266 266 265 265 264 264 264 264 264 265 265 264 263 262 261 261 260 260 260 260 260 260 259 258 257 257 258 258 257
289 290 290 291 291 291 292 292 292 293 293 292 292 292 291 291 290 290 289 289 288 288 287 287 287 286 286 285 284 282 281 280 279 278 278 277 277 276 276 275 275 274 273 272 271 270 269 268 267 266 265 264 264 264 264 264 264 264 264 263 263 263 262 262 263 263 264 264 263 262 261 260 258 257 257 257 257 258 257 257 257 257 257 257 258
290 290 291 291 292 292 293 293 294 294 294 293 293 292 292 291 291 291 291 290 289 289 289 289 289 289 288 287 285 284 283 282 281 280 280 279 279 278 278 277 276 275 274 273 272 271 270 269 268 267 266 265 264 263 263 263 263 263 262 262 262 261 261 261 262 262 263 263 262 262 261 260 258 256 255 254 254 255 255 255 256 256 255 256 256
290 290 291 291 292 292 293 294 295 295 294 294 293 293 292 292 292 292 291 291 291 291 290 290 290 290 289 287 287 286 285 283 282 282 281 281 280 279 279 278 277 277 276 275 274 273 272 271 270 269 268 266 265 264 263 262 262 262 261 261 261 260 260 261 261 261 262 262 261 261 260 259 258 256 255 253 252 252 252 253 253 254 254 255 255
290 290 291 291 292 293 294 295 295 295 294 294 294 293 293 292 292 292 292 292 292 292 292 292 292 290 289 288 288 287 286 284 283 282 281 280 280 279 280 280 280 279 278 278 277 276 275 274 273 272 271 269 268 266 265 264 263 262 262 261 260 260 260 259 259 259 260 260 260 260 260 259 258 256 255 254 253 252 251 251 251 251 252 252 253
290 291 291 292 294 295 295 296 296 295 295 294 294 294 294 294 294 294 294 294 294 294 294 294 292 291 290 289 288 287 285 284 282 281 281 280 281 282 283 283 283 282 281 280 279 278 276 275 274 273 272 271 270 269 268 267 266 265 264 263 262 261 259 258 258 258 258 259 259 259 259 258 258 257 255 254 253 253 252 252 251 250 249 250 250
291 292 293 294 295 296 296 297 296 296 296 295 295 295 296 296 296 296 296 295 295 296 295 294 293 292 291 289 288 286 284 283 282 281 282 283 285 287 287 287 286 284 283 281 280 278 277 276 274 272 271 270 269 269 268 268 268 268 267 266 265 263 261 259 258 257 257 257 258 258 258 257 257 257 256 254 253 252 251 251 251 250 249 248 248
292 293 294 295 296 297 297 297 297 297 297 296 297 297 298 298 297 297 296 296 296 297 296 295 293 292 290 288 287 284 283 283 282 283 285 288 290 292 292 292 290 289 287 284 282 280 278 277 276 275 273 271 269 268 268 268 268 268 269 268 267 266 264 262 260 259 258 257 257 257 257 257 257 257 256 256 254 252 250 250 249 249 249 248 247
293 294 296 297 297 298 298 298 298 298 297 298 298 299 299 298 298 297 296 297 298 298 297 295 294 292 289 288 286 285 284 283 284 288 292 295 296 297 297 296 296 295 294 292 289 285 282 281 280 279 277 274 272 270 269 268 268 268 268 268 268 267 266 265 264 262 260 259 258 257 257 257 257 257 256 256 256 254 251 249 248 248 248 248 247
295 296 297 298 298 298 299 299 299 298 298 299 300 299 298 297 296 295 296 298 300 300 298 295 293 292 291 289 287 286 285 285 288 292 296 298 299 300 299 298 298 299 300 299 297 294 290 287 285 284 282 280 277 274 272 271 270 270 269 268 268 267 267 266 266 264 263 261 260 259 258 257 257 257 256 255 254 253 251 249 248 248 248 248 248
297 297 298 298 299 299 299 299 299 299 299 300 300 299 297 295 294 295 298 300 302 301 299 295 294 295 295 292 288 286 285 286 289 293 296 298 301 302 302 301 300 301 303 303 303 303 300 296 291 287 284 282 281 279 277 275 274 273 272 271 270 269 268 267 266 265 264 263 261 259 258 257 256 255 255 254 252 251 251 249 248 247 247 248 248
298 298 299 299 299 299 299 299 298 298 299 300 299 297 294 293 294 297 300 302 304 303 301 299 298 298 296 293 289 287 287 287 289 292 294 296 299 301 301 301 301 302 304 304 305 305 304 302 298 294 290 286 284 282 280 277 275 274 272 272 271 271 270 269 268 266 265 264 262 260 258 256 255 253 253 253 252 251 250 249 248 246 245 246 247
299 299 299 299 299 299 298 298 298 298 299 299 297 292 289 291 295 299 301 304 306 305 303 301 299 296 294 291 290 289 289 289 289 290 291 293 295 296 297 298 298 299 300 301 302 302 301 299 297 295 293 291 289 287 284 281 278 274 272 270 269 269 269 269 269 269 267 265 263 260 258 256 254 253 252 252 252 251 250 249 248 246 245 244 244
299 299 299 299 299 298 298 298 298 298 299 296 291 287 287 292 295 298 302 304 306 307 305 303 299 295 291 289 288 287 287 288 289 289 290 291 293 293 294 294 295 296 296 297 298 298 297 296 295 294 293 292 292 291 289 286 281 277 273 270 268 267 267 267 267 268 267 266 264 262 259 256 254 252 251 251 251 250 250 249 247 246 245 244 244
299 299 299 298 298 298 297 297 298 299 297 291 284 283 289 295 297 298 301 304 307 308 308 306 304 300 295 292 291 289 287 287 288 290 291 292 293 295 296 297 297 297 297 298 299 299 299 299 299 298 297 296 295 294 293 289 284 278 274 271 269 267 266 265 265 266 265 265 263 262 260 257 254 251 250 250 249 248 248 249 248 246 245 245 244
298 298 298 298 298 297 297 297 298 297 292 284 278 281 288 295 299 302 303 304 306 308 309 308 307 305 302 299 298 296 294 293 293 295 296 298 300 301 301 302 301 301 301 301 301 302 302 302 302 301 301 301 300 299 298 293 287 281 276 272 269 267 266 265 264 264 264 264 263 261 259 258 255 252 249 249 249 248 247 248 248 247 246 245 244
298 298 298 297 297 297 297 297 297 293 285 278 278 282 286 291 298 303 305 306 306 307 308 308 307 306 305 304 303 302 301 301 301 302 302 303 304 304 304 304 304 304 303 303 304 304 304 304 304 304 305 305 305 304 302 297 290 284 278 274 270 267 266 264 263 263 263 263 262 261 259 257 255 253 250 248 247 248 247 247 247 248 248 247 245
299 298 298 298 298 297 297 296 294 287 279 276 280 285 287 289 294 299 304 307 308 308 308 307 306 305 305 306 305 305 304 304 305 305 305 305 305 304 305 305 304 304 303 304 305 304 304 304 305 306 307 308 308 307 304 299 293 288 282 277 272 268 266 265 263 263 262 262 260 259 258 256 255 254 251 249 247 247 247 246 247 248 249 248 247
299 299 298 298 298 297 296 293 288 281 276 277 281 285 288 291 294 295 298 302 306 307 308 308 307 306 306 307 307 307 307 307 307 307 306 306 306 305 305 305 304 304 304 304 304 304 303 304 306 307 309 310 310 309 306 301 296 292 287 281 276 271 268 266 264 264 263 262 260 258 256 255 254 253 252 250 248 247 246 245 245 247 248 249 249
300 300 299 299 298 295 292 288 282 276 276 279 282 285 289 293 296 297 297 298 299 302 304 307 308 307 307 308 308 308 308 308 308 307 307 307 306 306 305 305 304 304 304 304 304 304 305 306 308 309 311 312 312 310 307 303 299 295 291 286 280 275 270 267 265 264 263 262 261 260 258 255 253 251 251 250 249 248 247 244 243 244 247 248 249
300 300 300 299 296 292 287 281 276 274 277 280 283 288 292 296 297 298 299 300 300 301 302 304 306 307 308 308 308 308 308 308 308 308 307 307 306 306 305 304 303 302 302 303 304 305 306 307 309 311 312 313 312 310 308 305 302 299 295 290 285 279 274 271 268 266 264 263 262 261 259 257 254 251 249 248 247 248 247 244 241 241 243 245 246
300 300 299 297 292 286 280 275 272 274 278 282 286 291 295 297 298 299 300 301 302 302 303 303 305 307 309 309 310 310 310 309 309 309 308 307 307 306 305 304 302 302 301 302 304 305 307 308 310 312 314 314 313 311 308 306 305 303 300 295 290 283 278 274 271 269 267 265 263 262 260 258 255 252 249 247 245 245 245 244 241 239 240 242 244
299 298 297 293 286 278 273 271 274 277 280 284 289 293 296 298 299 301 303 304 304 304 304 304 304 306 308 310 311 311 312 312 311 311 310 309 308 307 306 304 303 302 302 302 303 304 307 310 312 315 316 316 315 313 311 310 308 305 302 299 294 289 284 279 276 273 271 268 266 264 261 258 256 252 249 246 244 243 243 243 240 237 237 240 243
298 297 294 287 277 270 269 272 276 280 284 288 292 295 296 298 301 303 305 306 306 306 306 306 307 307 308 310 311 312 313 313 312 312 311 310 308 307 305 303 302 300 300 300 301 303 307 311 315 317 319 319 318 316 315 315 313 309 306 302 298 293 289 286 282 279 276 273 270 268 264 260 256 251 248 245 243 242 242 241 239 236 236 238 241
296 294 288 277 268 266 270 275 279 283 287 291 293 295 296 300 303 305 306 307 307 307 308 308 309 309 309 309 310 311 311 311 311 310 310 309 308 306 304 302 300 298 297 298 300 303 308 313 318 321 323 324 323 321 320 320 318 314 309 305 301 296 293 289 286 283 280 277 274 271 267 262 257 252 248 245 243 241 240 238 235 233 234 236 239
293 287 278 269 266 269 274 279 283 287 289 291 293 296 299 303 305 307 307 308 309 310 310 311 311 311 311 311 311 311 311 311 310 309 309 308 307 306 304 302 299 297 296 297 299 303 309 316 321 325 329 330 330 328 326 324 323 319 314 309 305 301 296 293 289 285 282 281 279 276 270 263 258 253 250 246 243 241 239 235 233 232 233 236 239
285 277 269 265 267 273 279 283 286 288 290 292 295 299 303 306 307 308 309 310 311 312 313 313 313 314 314 314 314 313 312 312 311 310 310 309 309 308 306 303 299 296 295 296 298 303 309 316 322 328 333 336 337 337 334 330 326 323 319 316 312 307 302 297 292 288 283 280 280 279 276 269 262 256 252 247 243 239 236 234 233 234 236 238 241
274 267 264 266 270 276 281 284 286 289 291 294 298 302 305 306 307 309 310 311 312 313 314 315 315 315 315 315 315 315 314 314 314 314 313 313 312 311 309 305 301 298 295 294 297 302 308 314 321 328 334 339 341 342 341 337 332 327 322 319 316 313 307 302 297 291 285 278 273 273 275 273 268 261 256 250 245 240 236 234 234 236 238 240 242
264 261 263 267 273 278 281 284 287 290 292 295 299 303 305 307 308 310 311 312 313 314 315 316 316 316 316 316 317 317 318 318 318 318 318 318 318 316 313 310 305 300 296 294 296 301 306 312 319 326 332 337 341 343 344 343 340 335 328 323 319 315 312 307 302 297 290 281 271 263 260 262 264 262 258 253 248 243 239 237 237 238 239 241 243
258 260 264 269 275 278 281 285 289 292 295 298 302 305 307 308 310 312 313 314 315 316 316 317 317 318 318 318 319 320 320 320 320 321 322 322 322 320 318 314 308 302 297 296 297 300 304 310 316 322 327 333 337 341 343 344 344 343 339 333 326 319 315 311 308 304 298 290 279 266 255 248 248 252 254 253 250 247 244 242 241 241 242 244 245
255 259 265 271 275 279 284 289 292 294 298 302 305 307 309 311 312 313 314 316 317 317 318 319 319 319 320 320 320 321 321 321 321 323 324 325 325 324 322 319 312 304 299 297 298 299 302 307 312 316 322 327 333 337 340 341 342 343 343 341 336 329 321 314 309 307 305 301 293 282 268 254 245 241 242 244 246 247 246 246 245 245 245 246 246
253 259 266 272 276 283 289 292 294 297 301 305 307 310 311 312 313 314 316 317 318 319 320 320 321 321 321 321 321 322 322 322 322 323 325 327 328 328 328 326 319 309 302 299 300 300 301 304 308 312 316 322 328 332 335 338 340 340 341 341 340 338 332 324 315 308 304 302 300 294 284 272 260 249 242 238 238 239 240 242 243 243 243 242 241
254 262 269 274 280 287 291 293 295 299 303 306 309 311 312 314 315 316 318 319 320 321 321 321 321 321 322 322 322 323 324 323 322 322 324 327 330 331 333 333 329 321 310 304 302 301 301 302 306 310 313 318 323 327 331 335 337 338 338 338 337 337 337 334 327 315 305 302 304 304 295 283 274 265 255 246 240 236 234 233 234 235 235 235 234
259 267 272 278 284 289 292 294 298 302 305 307 309 311 313 315 316 318 319 320 321 322 322 322 321 321 322 322 323 325 325 324 322 320 321 325 330 333 336 338 337 334 326 317 310 306 304 305 307 309 312 315 319 323 326 330 333 335 336 336 335 335 335 335 333 326 314 308 317 322 312 294 280 274 271 262 253 245 239 235 233 232 231 231 231
265 271 275 281 287 290 293 297 300 303 306 308 310 312 314 316 317 319 320 321 322 322 322 321 321 321 321 322 324 326 327 326 323 318 316 320 326 331 336 339 341 341 339 334 327 320 314 311 310 310 311 313 315 318 321 325 329 332 335 336 337 336 336 336 336 332 322 314 318 327 325 310 289 278 278 278 271 260 250 244 240 237 234 232 229
268 273 279 284 288 291 294 297 300 303 305 308 310 312 314 316 318 320 322 322 322 322 321 320 320 319 320 321 323 325 327 328 325 319 313 313 319 325 330 335 339 342 343 343 341 336 330 324 319 316 314 314 314 316 318 321 325 329 334 338 340 340 341 341 340 337 330 319 312 314 323 325 312 292 281 279 278 271 260 251 245 240 235 232 228
Height
5639 5638 5637 5636 5635 5634 5633 5632 5631 5630 5629 5628 5627 5626 5625 5624 5623 5623 5622 5621 5621 5621 5620 5620 5619 5619 5618 5618 5617 5617 5616 5616 5616 5616 5615 5614 5613 5613 5612 5612 5612 5613 5613 5614 5614 5614 5616 5617 5618 5618 5618 5619 5621 5621 5622 5622 5623 5624 5625 5626 5628 5628 5628 5629 5634 5641 5644 5644 5646 5648 5648 5649 5651 5653 5654 5655 5656 5656 5657 5658 5658 5659 5661 5663 5664
5629 5628 5627 5625 5624 5623 5622 5621 5620 5620 5619 5618 5617 5616 5615 5614 5613 5613 5612 5611 5611 5610 5610 5609 5608 5608 5607 5605 5604 5603 5602 5601 5601 5602 5602 5602 5601 5600 5599 5599 5599 5600 5600 5600 5600 5600 5602 5604 5606 5606 5605 5607 5609 5609 5610 5610 5610 5612 5613 5614 5616 5617 5616 5618 5622 5628 5632 5633 5633 5636 5638 5638 5641 5643 5643 5644 5646 5645 5647 5649 5649 5650 5651 5652 5654
5619 5617 5616 5614 5613 5612 5611 5610 5609 5609 5608 5607 5607 5606 5605 5604 5603 5602 5602 5601 5600 5599 5597 5597 5596 5595 5594 5593 5592 5591 5589 5588 5587 5587 5587 5587 5588 5587 5586 5586 5586 5587 5587 5587 5586 5586 5587 5589 5591 5592 5592 5594 5596 5597 5597 5598 5598 5599 5601 5601 5603 5604 5604 5605 5609 5614 5619 5621 5621 5624 5625 5627 5631 5633 5632 5633 5634 5634 5637 5639 5640 5640 5641 5642 5644
5608 5606 5605 5603 5602 5601 5600 5599 5598 5597 5596 5595 5595 5593 5592 5592 5591 5590 5590 5590 5589 5588 5586 5584 5583 5582 5581 5580 5579 5578 5576 5576 5575 5574 5572 5571 5571 5573 5573 5572 5573 5574 5574 5574 5574 5573 5573 5575 5576 5577 5578 5580 5583 5584 5584 5585 5585 5586 5588 5589 5590 5591 5592 5592 5595 5600 5604 5608 5611 5611 5612 5614 5618 5620 5620 5622 5623 5624 5626 5628 5629 5631 5632 5632 5634
5599 5596 5594 5593 5591 5590 5588 5587 5586 5585 5584 5583 5582 5581 5580 5579 5578 5578 5577 5577 5577 5575 5574 5572 5571 5569 5569 5567 5566 5565 5563 5562 5561 5561 5559 5556 5555 5556 5557 5557 5558 5559 5560 5561 5561 5561 5561 5562 5563 5563 5563 5566 5569 5570 5571 5571 5572 5573 5576 5577 5577 5578 5579 5579 5581 5584 5587 5594 5598 5598 5599 5601 5604 5606 5608 5609 5611 5613 5614 5616 5618 5620 5621 5622 5624
5589 5587 5585 5583 5581 5580 5577 5576 5574 5573 5572 5571 5570 5570 5568 5567 5566 5565 5564 5563 5563 5561 5560 5558 5557 5555 5554 5553 5552 5551 5550 5549 5547 5546 5544 5541 5539 5539 5539 5540 5542 5543 5545 5546 5547 5547 5548 5550 5551 5551 5550 5552 5554 5556 5556 5557 5558 5560 5562 5563 5563 5564 5565 5567 5569 5570 5573 5579 5584 5585 5586 5589 5591 5593 5596 5596 5598 5600 5603 5604 5606 5608 5610 5611 5613
5578 5575 5574 5572 5570 5569 5567 5565 5563 5561 5560 5559 5557 5556 5555 5553 5552 5551 5549 5549 5548 5546 5545 5544 5542 5540 5539 5538 5537 5536 5536 5536 5534 5532 5528 5525 5523 5522 5522 5523 5524 5526 5528 5530 5532 5533 5534 5536 5538 5539 5539 5539 5540 5541 5541 5542 5543 5545 5547 5549 5549 5549 5551 5554 5555 5556 5560 5565 5569 5572 5574 5576 5577 5580 5583 5583 5585 5589 5591 5592 5594 5596 5598 5600 5602
5566 5564 5562 5561 5559 5557 5555 5553 5551 5549 5547 5546 5544 5543 5541 5540 5538 5536 5535 5533 5532 5531 5529 5528 5528 5526 5524 5523 5522 5520 5519 5520 5519 5516 5513 5510 5508 5506 5506 5506 5506 5508 5510 5513 5515 5518 5520 5522 5523 5525 5526 5526 5527 5528 5528 5528 5528 5530 5533 5533 5533 5534 5537 5539 5541 5543 5546 5551 5555 5559 5560 5562 5565 5568 5570 5570 5573 5578 5580 5578 5581 5585 5586 5587 5589
5554 5552 5551 5549 5547 5545 5543 5541 5538 5536 5534 5532 5531 5530 5528 5526 5524 5522 5520 5518 5516 5515 5513 5512 5511 5511 5510 5508 5507 5506 5505 5504 5503 5499 5495 5494 5492 5491 5490 5489 5490 5491 5493 5496 5499 5500 5503 5505 5507 5509 5510 5510 5512 5514 5515 5515 5515 5516 5519 5519 5517 5518 5521 5523 5525 5528 5532 5535 5541 5545 5546 5548 5553 5555 5556 5558 5561 5564 5564 5563 5568 5573 5572 5573 5576
5542 5540 5538 5536 5535 5533 5531 5528 5525 5523 5521 5519 5517 5515 5514 5512 5510 5508 5506 5503 5501 5500 5498 5497 5495 5494 5493 5493 5492 5492 5491 5489 5487 5482 5479 5477 5475 5474 5474 5474 5475 5475 5477 5480 5483 5485 5486 5486 5488 5490 5492 5493 5495 5497 5499 5500 5500 5501 5504 5504 5502 5503 5504 5506 5509 5513 5515 5519 5525 5530 5530 5534 5541 5543 5542 5545 5547 5547 5548 5550 5554 5558 5557 5559 5565
5528 5527 5525 5523 5521 5519 5517 5514 5511 5509 5507 5505 5502 5500 5498 5496 5494 5492 5490 5488 5486 5484 5482 5480 5479 5476 5475 5476 5476 5476 5475 5473 5470 5466 5464 5461 5458 5457 5458 5460 5462 5462 5462 5463 5465 5468 5469 5470 5470 5472 5473 5475 5477 5479 5480 5482 5483 5484 5486 5487 5487 5486 5488 5491 5494 5497 5499 5502 5509 5514 5515 5520 5528 5528 5526 5530 5532 5531 5534 5536 5538 5541 5543 5546 5554
5515 5512 5511 5509 5507 5505 5502 5500 5497 5495 5492 5490 5487 5485 5483 5480 5478 5476 5474 5472 5470 5468 5466 5463 5462 5459 5457 5457 5458 5458 5457 5455 5451 5449 5448 5446 5442 5441 5441 5444 5447 5449 5450 5449 5449 5450 5451 5452 5453 5454 5456 5458 5459 5460 5461 5463 5464 5465 5465 5467 5468 5469 5471 5474 5478 5481 5483 5485 5491 5497 5501 5506 5513 5513 5510 5513 5515 5514 5517 5520 5522 5526 5529 5532 5540
5502 5499 5497 5495 5493 5490 5488 5486 5484 5481 5478 5476 5473 5471 5469 5466 5464 5461 5460 5458 5455 5454 5452 5449 5447 5443 5440 5439 5440 5440 5439 5436 5432 5431 5429 5427 5425 5424 5424 5428 5431 5433 5435 5436 5436 5436 5436 5435 5435 5436 5438 5439 5439 5440 5441 5442 5444 5444 5444 5445 5447 5450 5453 5456 5459 5464 5467 5469 5473 5481 5488 5491 5494 5497 5496 5494 5495 5497 5500 5504 5507 5510 5512 5517 5526
5491 5488 5486 5483 5480 5478 5475 5473 5471 5469 5467 5464 5462 5459 5456 5454 5451 5448 5446 5444 5442 5440 5438 5436 5433 5430 5427 5425 5425 5425 5422 5418 5415 5413 5410 5409 5408 5406 5407 5410 5414 5416 5418 5419 5419 5419 5420 5420 5419 5420 5422 5422 5421 5421 5421 5421 5422 5423 5424 5425 5428 5431 5434 5436 5441 5445 5449 5452 5455 5463 5473 5475 5474 5479 5480 5475 5476 5481 5484 5487 5490 5492 5495 5501 5508
5480 5478 5475 5472 5469 5467 5465 5463 5461 5458 5456 5453 5451 5448 5445 5442 5439 5436 5434 5432 5429 5427 5424 5422 5420 5417 5415 5412 5411 5411 5408 5402 5400 5397 5394 5393 5392 5390 5390 5393 5395 5398 5400 5401 5400 5400 5401 5402 5401 5403 5405 5405 5405 5404 5402 5401 5401 5401 5403 5406 5409 5413 5415 5418 5423 5427 5430 5433 5436 5443 5453 5457 5456 5459 5461 5458 5459 5464 5469 5471 5473 5475 5477 5482 5490
5471 5469 5466 5463 5460 5457 5455 5453 5450 5448 5445 5443 5440 5437 5434 5431 5427 5424 5423 5421 5417 5414 5411 5408 5406 5404 5402 5399 5398 5398 5395 5389 5385 5383 5380 5379 5378 5376 5377 5378 5379 5381 5383 5383 5382 5381 5382 5382 5381 5382 5384 5386 5388 5387 5384 5382 5381 5381 5383 5385 5389 5392 5396 5402 5407 5408 5409 5412 5415 5421 5430 5437 5438 5439 5442 5442 5441 5446 5450 5452 5455 5459 5462 5466 5474
5462 5460 5457 5453 5451 5448 5445 5443 5440 5438 5435 5432 5429 5426 5422 5420 5416 5413 5411 5410 5406 5402 5400 5397 5394 5391 5390 5387 5384 5384 5383 5377 5373 5370 5368 5367 5365 5364 5364 5365 5366 5366 5367 5367 5365 5364 5365 5364 5363 5362 5363 5366 5370 5369 5366 5363 5361 5362 5365 5367 5370 5372 5377 5385 5389 5390 5390 5391 5393 5398 5405 5414 5419 5420 5422 5424 5424 5427 5429 5432 5438 5445 5447 5450 5458
5454 5451 5448 5444 5441 5439 5436 5433 5431 5428 5425 5421 5418 5415 5412 5409 5406 5402 5400 5398 5395 5392 5388 5387 5384 5380 5377 5375 5371 5370 5370 5366 5360 5358 5357 5355 5352 5351 5352 5352 5353 5352 5352 5352 5351 5349 5349 5348 5346 5345 5345 5349 5351 5350 5348 5345 5342 5344 5347 5349 5351 5354 5361 5369 5370 5369 5369 5370 5373 5377 5382 5389 5396 5400 5402 5405 5407 5408 5409 5414 5424 5428 5428 5434 5444
5446 5443 5439 5436 5433 5430 5427 5424 5421 5418 5414 5411 5408 5405 5402 5399 5396 5392 5389 5386 5384 5381 5378 5376 5374 5369 5365 5363 5359 5357 5356 5354 5349 5346 5346 5344 5341 5340 5339 5340 5341 5340 5339 5339 5338 5336 5335 5335 5332 5330 5330 5332 5333 5332 5331 5328 5325 5327 5330 5331 5332 5338 5347 5353 5350 5347 5348 5349 5352 5357 5361 5367 5373 5378 5381 5386 5389 5390 5391 5398 5408 5410 5411 5419 5429
5438 5434 5431 5427 5424 5421 5418 5415 5411 5407 5404 5401 5398 5395 5391 5388 5386 5382 5379 5375 5373 5370 5367 5364 5363 5359 5355 5352 5349 5345 5343 5342 5339 5336 5336 5334 5331 5330 5331 5331 5331 5330 5329 5329 5328 5326 5324 5322 5320 5318 5316 5317 5317 5316 5315 5312 5310 5310 5313 5314 5317 5325 5332 5332 5329 5329 5329 5330 5333 5337 5341 5346 5353 5357 5362 5366 5371 5374 5375 5380 5389 5394 5396 5402 5409
5429 5426 5422 5419 5416 5412 5409 5405 5401 5398 5394 5391 5389 5385 5381 5378 5375 5372 5368 5365 5363 5360 5357 5354 5352 5349 5345 5342 5340 5336 5333 5332 5331 5328 5327 5326 5324 5323 5324 5323 5322 5321 5320 5319 5318 5316 5314 5311 5309 5307 5305 5304 5304 5301 5300 5299 5296 5296 5298 5300 5303 5309 5312 5311 5311 5313 5312 5312 5315 5318 5321 5328 5333 5338 5343 5347 5353 5358 5360 5363 5370 5376 5379 5384 5391
5421 5417 5414 5410 5407 5403 5400 5396 5392 5388 5384 5381 5379 5376 5371 5368 5364 5361 5358 5355 5353 5351 5348 5345 5343 5341 5337 5334 5331 5328 5325 5323 5322 5321 5320 5319 5318 5317 5317 5316 5314 5313 5312 5310 5308 5305 5302 5300 5298 5296 5294 5293 5292 5290 5288 5287 5284 5283 5285 5287 5288 5291 5292 5293 5295 5297 5296 5297 5299 5301 5305 5310 5315 5320 5325 5330 5336 5342 5345 5347 5352 5356 5360 5366 5372
5412 5408 5405 5401 5398 5394 5390 5386 5382 5379 5375 5372 5369 5366 5362 5358 5355 5351 5348 5346 5345 5343 5340 5337 5334 5332 5330 5327 5323 5320 5318 5316 5315 5314 5314 5314 5312 5310 5309 5307 5305 5303 5302 5300 5298 5295 5292 5289 5287 5285 5283 5281 5281 5279 5277 5276 5274 5274 5274 5274 5274 5274 5275 5276 5279 5281 5283 5284 5285 5287 5290 5295 5300 5305 5309 5314 5320 5326 5329 5330 5333 5337 5339 5345 5352
5403 5399 5396 5392 5389 5385 5381 5377 5373 5369 5365 5362 5360 5357 5353 5350 5347 5343 5340 5338 5337 5335 5332 5329 5327 5325 5323 5320 5317 5314 5312 5310 5309 5308 5307 5307 5305 5303 5301 5299 5296 5294 5292 5290 5288 5285 5282 5279 5277 5275 5273 5271 5269 5268 5267 5265 5264 5264 5263 5261 5260 5260 5261 5262 5264 5267 5268 5270 5271 5274 5278 5282 5286 5290 5295 5300 5304 5308 5310 5312 5314 5318 5321 5325 5331
5394 5390 5386 5383 5379 5376 5372 5368 5364 5360 5356 5353 5351 5347 5344 5342 5339 5336 5333 5331 5330 5328 5325 5322 5320 5318 5316 5314 5311 5308 5306 5304 5303 5302 5300 5299 5297 5295 5294 5291 5288 5286 5283 5281 5278 5276 5274 5271 5269 5267 5264 5262 5260 5259 5257 5256 5254 5253 5253 5251 5249 5248 5248 5249 5251 5252 5253 5256 5259 5261 5265 5269 5272 5276 5281 5284 5286 5287 5291 5295 5299 5303 5305 5308 5313
5385 5381 5377 5373 5370 5366 5363 5359 5355 5351 5348 5344 5342 5338 5335 5334 5332 5329 5327 5325 5323 5321 5318 5316 5314 5312 5309 5307 5305 5303 5300 5298 5297 5296 5294 5292 5290 5287 5285 5283 5280 5278 5275 5272 5269 5267 5265 5263 5261 5259 5257 5254 5252 5251 5249 5248 5246 5244 5243 5240 5239 5238 5237 5236 5237 5238 5239 5242 5245 5248 5251 5256 5259 5262 5263 5264 5266 5270 5275 5280 5284 5288 5290 5293 5296
5375 5372 5368 5364 5361 5357 5354 5350 5347 5343 5340 5337 5334 5331 5328 5327 5325 5323 5321 5319 5317 5315 5312 5310 5307 5305 5304 5301 5299 5297 5295 5293 5292 5290 5288 5286 5283 5281 5278 5275 5272 5270 5267 5264 5261 5259 5256 5254 5251 5250 5248 5247 5245 5242 5240 5239 5237 5235 5234 5231 5229 5228 5226 5225 5224 5225 5226 5229 5232 5235 5238 5241 5244 5246 5248 5248 5251 5256 5261 5264 5267 5272 5276 5279 5280
5366 5363 5359 5356 5352 5349 5345 5342 5339 5336 5333 5330 5328 5325 5322 5320 5319 5317 5314 5312 5311 5309 5306 5305 5302 5300 5298 5296 5294 5292 5289 5287 5286 5284 5282 5280 5278 5276 5273 5270 5267 5264 5261 5259 5256 5253 5250 5247 5244 5241 5239 5237 5235 5233 5231 5228 5226 5224 5223 5221 5219 5217 5216 5214 5214 5214 5215 5216 5218 5221 5223 5225 5228 5232 5235 5236 5238 5243 5246 5248 5251 5256 5261 5263 5264
5357 5354 5350 5347 5344 5341 5337 5334 5331 5329 5326 5324 5321 5319 5316 5315 5314 5313 5309 5306 5305 5303 5301 5299 5297 5295 5293 5291 5289 5287 5285 5282 5280 5279 5276 5274 5271 5269 5267 5264 5261 5258 5256 5253 5251 5248 5245 5241 5238 5235 5232 5229 5226 5223 5220 5217 5214 5211 5209 5208 5207 5206 5205 5204 5203 5203 5203 5204 5206 5208 5210 5211 5214 5218 5221 5223 5227 5231 5232 5233 5237 5241 5244 5246 5250
5349 5345 5342 5339 5336 5333 5330 5326 5323 5321 5319 5318 5316 5315 5312 5308 5307 5306 5305 5302 5299 5297 5295 5294 5291 5289 5287 5285 5282 5280 5279 5277 5274 5272 5270 5267 5264 5262 5259 5256 5253 5250 5248 5246 5243 5240 5237 5234 5231 5227 5224 5221 5217 5213 5209 5204 5201 5198 5196 5194 5193 5193 5193 5193 5193 5192 5191 5192 5194 5196 5197 5198 5201 5205 5207 5211 5216 5220 5221 5221 5224 5227 5229 5232 5237
5341 5338 5334 5331 5328 5325 5322 5319 5317 5314 5312 5311 5311 5310 5309 5305 5301 5299 5298 5297 5294 5291 5289 5288 5286 5283 5281 5279 5276 5274 5271 5269 5267 5265 5262 5260 5257 5255 5252 5248 5245 5243 5241 5238 5236 5232 5229 5226 5223 5219 5215 5211 5207 5202 5197 5193 5188 5185 5184 5182 5181 5180 5180 5181 5181 5180 5180 5181 5183 5184 5186 5187 5190 5193 5196 5199 5204 5208 5209 5210 5212 5214 5216 5220 5224
5333 5330 5327 5324 5320 5317 5314 5312 5310 5308 5306 5305 5305 5305 5304 5303 5299 5294 5291 5290 5288 5287 5284 5283 5281 5279 5276 5273 5270 5268 5265 5263 5261 5259 5256 5254 5251 5248 5246 5242 5239 5236 5233 5231 5228 5224 5221 5217 5214 5210 5206 5202 5197 5191 5186 5181 5178 5175 5172 5171 5171 5169 5169 5169 5169 5169 5170 5171 5172 5173 5175 5177 5179 5182 5184 5188 5192 5195 5198 5200 5202 5203 5206 5209 5212
5325 5322 5319 5316 5313 5309 5307 5305 5303 5301 5300 5300 5300 5299 5298 5298 5297 5293 5289 5284 5281 5280 5278 5277 5275 5273 5271 5268 5265 5262 5260 5258 5255 5253 5250 5248 5245 5242 5239 5235 5232 5229 5226 5224 5220 5216 5212 5209 5205 5201 5197 5192 5187 5182 5176 5172 5168 5165 5163 5162 5161 5159 5158 5158 5158 5158 5160 5161 5161 5162 5164 5166 5168 5170 5173 5176 5180 5183 5187 5191 5194 5195 5196 5198 5202
5316 5313 5310 5308 5305 5302 5299 5298 5296 5295 5295 5295 5294 5294 5293 5292 5291 5289 5287 5284 5279 5275 5273 5270 5268 5267 5265 5262 5259 5256 5254 5251 5249 5247 5244 5242 5239 5236 5233 5229 5225 5221 5218 5216 5213 5210 5205 5201 5197 5193 5188 5183 5178 5173 5168 5163 5159 5156 5154 5152 5151 5150 5149 5149 5148 5149 5149 5150 5150 5152 5154 5155 5157 5159 5161 5165 5169 5172 5176 5181 5185 5186 5187 5190 5193
5307 5304 5301 5299 5297 5294 5292 5291 5290 5290 5290 5290 5289 5288 5287 5286 5285 5283 5281 5280 5277 5274 5270 5266 5263 5261 5259 5256 5253 5250 5248 5246 5243 5241 5238 5236 5233 5230 5227 5223 5219 5215 5211 5208 5205 5202 5198 5194 5190 5185 5180 5175 5169 5164 5160 5155 5152 5149 5146 5144 5143 5142 5141 5140 5139 5139 5139 5140 5140 5142 5143 5144 5146 5148 5151 5154 5158 5162 5166 5172 5175 5177 5179 5182 5185
5299 5296 5293 5291 5289 5287 5285 5285 5285 5285 5285 5284 5284 5283 5282 5280 5279 5277 5275 5273 5272 5269 5267 5263 5259 5256 5253 5251 5248 5244 5242 5239 5237 5234 5232 5229 5227 5224 5221 5217 5214 5210 5206 5202 5199 5194 5190 5186 5182 5178 5173 5168 5162 5157 5152 5149 5145 5142 5139 5137 5136 5134 5132 5131 5130 5130 5130 5130 5131 5131 5132 5133 5135 5138 5140 5143 5148 5152 5156 5161 5165 5167 5169 5172 5174
5291 5288 5286 5283 5281 5280 5279 5279 5279 5279 5279 5279 5278 5277 5276 5275 5273 5271 5269 5267 5266 5264 5261 5259 5256 5252 5248 5245 5242 5239 5236 5233 5230 5228 5225 5223 5220 5217 5214 5211 5207 5204 5200 5196 5193 5188 5184 5179 5175 5171 5166 5161 5156 5151 5147 5143 5139 5136 5133 5131 5129 5127 5125 5124 5123 5122 5121 5121 5122 5122 5123 5123 5125 5127 5130 5133 5137 5141 5146 5151 5155 5157 5160 5162 5164
5284 5281 5279 5277 5275 5275 5274 5274 5274 5274 5274 5274 5273 5272 5271 5269 5267 5266 5263 5261 5260 5258 5256 5253 5251 5248 5244 5240 5237 5233 5230 5226 5223 5220 5218 5215 5213 5210 5206 5203 5200 5197 5193 5190 5187 5183 5179 5174 5169 5165 5160 5155 5150 5145 5141 5137 5133 5130 5127 5125 5123 5121 5119 5117 5116 5114 5114 5114 5113 5113 5114 5115 5116 5118 5120 5123 5127 5131 5136 5141 5145 5147 5150 5153 5156
5276 5274 5272 5271 5270 5270 5270 5270 5270 5269 5269 5269 5268 5267 5266 5264 5262 5260 5258 5256 5254 5252 5250 5247 5245 5242 5239 5236 5232 5228 5225 5221 5217 5213 5210 5207 5205 5202 5199 5196 5193 5189 5186 5183 5180 5177 5174 5169 5164 5160 5155 5150 5145 5140 5136 5132 5128 5125 5122 5119 5117 5115 5113 5111 5110 5109 5108 5107 5107 5106 5107 5108 5109 5110 5112 5115 5119 5123 5128 5132 5135 5138 5142 5145 5148
5270 5267 5266 5266 5266 5265 5265 5265 5265 5265 5265 5264 5263 5262 5261 5259 5257 5255 5253 5251 5248 5246 5244 5242 5239 5236 5234 5231 5228 5224 5220 5216 5212 5208 5204 5200 5197 5194 5191 5188 5185 5182 5179 5177 5174 5172 5169 5165 5160 5155 5150 5146 5141 5136 5132 5128 5124 5121 5117 5115 5113 5110 5108 5106 5105 5104 5103 5102 5101 5101 5101 5102 5102 5104 5106 5109 5112 5116 5119 5123 5126 5130 5134 5137 5140
5263 5262 5262 5262 5261 5261 5261 5261 5261 5261 5260 5259 5259 5257 5255 5254 5252 5250 5248 5245 5243 5240 5238 5236 5233 5230 5228 5225 5221 5218 5214 5210 5206 5202 5198 5194 5190 5186 5184 5181 5178 5176 5173 5171 5168 5166 5164 5160 5156 5152 5147 5142 5137 5133 5128 5125 5121 5118 5115 5112 5109 5107 5104 5102 5100 5099 5098 5097 5097 5097 5097 5097 5098 5099 5101 5104 5107 5109 5112 5116 5119 5122 5126 5129 5133
5258 5257 5257 5257 5257 5257 5257 5257 5257 5256 5256 5255 5254 5252 5250 5249 5247 5245 5243 5240 5238 5235 5232 5230 5227 5224 5221 5218 5215 5211 5207 5203 5199 5195 5191 5187 5183 5180 5177 5174 5172 5169 5167 5165 5163 5161 5159 5156 5153 5149 5144 5140 5135 5130 5126 5122 5118 5115 5112 5109 5106 5104 5101 5099 5096 5094 5093 5092 5092 5092 5093 5093 5094 5095 5097 5099 5102 5104 5107 5110 5113 5116 5120 5123 5126
5253 5253 5253 5253 5253 5253 5253 5253 5252 5252 5251 5250 5249 5247 5246 5244 5242 5240 5238 5236 5233 5230 5227 5224 5221 5218 5215 5211 5208 5204 5200 5196 5192 5188 5184 5181 5177 5173 5170 5167 5165 5163 5161 5160 5158 5156 5154 5152 5149 5146 5142 5137 5133 5129 5125 5120 5117 5113 5110 5107 5104 5101 5099 5096 5094 5092 5090 5088 5088 5088 5089 5090 5091 5092 5094 5095 5097 5100 5102 5105 5108 5111 5114 5117 5120
5248 5249 5249 5249 5249 5249 5249 5249 5248 5248 5247 5246 5245 5243 5242 5240 5238 5236 5234 5231 5229 5226 5223 5220 5216 5212 5209 5205 5201 5197 5194 5190 5186 5182 5179 5175 5172 5168 5165 5162 5160 5158 5156 5154 5153 5152 5150 5148 5145 5142 5139 5135 5131 5127 5123 5119 5116 5112 5109 5106 5103 5100 5098 5095 5093 5091 5088 5086 5085 5084 5084 5085 5087 5089 5090 5092 5094 5096 5098 5101 5103 5106 5109 5111 5114
5244 5245 5245 5246 5246 5246 5245 5245 5244 5244 5243 5241 5240 5239 5237 5235 5233 5231 5229 5226 5224 5221 5218 5215 5211 5207 5203 5199 5196 5192 5189 5185 5182 5178 5174 5171 5168 5164 5161 5158 5155 5153 5151 5150 5148 5147 5145 5143 5141 5138 5135 5132 5129 5125 5121 5118 5114 5111 5107 5104 5102 5099 5097 5095 5092 5090 5088 5086 5085 5083 5082 5082 5083 5084 5086 5088 5090 5092 5094 5097 5099 5101 5103 5106 5108
5241 5242 5242 5242 5242 5242 5241 5241 5240 5239 5238 5237 5236 5234 5233 5231 5229 5227 5224 5222 5219 5216 5213 5209 5206 5202 5198 5195 5191 5188 5184 5181 5177 5174 5171 5167 5164 5161 5157 5154 5152 5149 5147 5146 5144 5143 5141 5139 5137 5135 5132 5130 5127 5123 5120 5117 5113 5110 5107 5104 5101 5098 5096 5094 5092 5090 5088 5086 5085 5083 5082 5081 5080 5080 5082 5083 5086 5088 5090 5092 5094 5096 5098 5100 5102
5238 5238 5238 5238 5238 5238 5237 5237 5236 5235 5234 5233 5231 5230 5228 5226 5224 5222 5220 5217 5214 5211 5208 5204 5201 5197 5194 5191 5187 5184 5180 5177 5174 5171 5168 5165 5162 5158 5155 5151 5148 5146 5144 5142 5141 5139 5138 5136 5134 5132 5130 5127 5125 5122 5119 5116 5112 5109 5106 5103 5100 5098 5095 5093 5091 5089 5087 5086 5085 5083 5082 5081 5080 5080 5080 5080 5082 5083 5085 5087 5089 5091 5093 5095 5096
5234 5235 5235 5235 5234 5234 5233 5233 5232 5231 5230 5228 5227 5226 5224 5222 5220 5218 5215 5212 5209 5206 5203 5200 5196 5193 5190 5187 5184 5180 5177 5174 5171 5168 5165 5163 5160 5156 5153 5149 5146 5143 5141 5139 5138 5136 5134 5132 5131 5129 5127 5125 5122 5120 5117 5114 5111 5108 5106 5103 5100 5097 5095 5092 5090 5088 5087 5085 5084 5083 5082 5081 5081 5080 5080 5080 5080 5081 5082 5083 5085 5086 5088 5090 5092
5231 5231 5231 5231 5231 5230 5230 5229 5228 5227 5226 5224 5223 5221 5220 5218 5216 5213 5211 5208 5205 5202 5199 5196 5193 5189 5186 5183 5180 5177 5174 5170 5167 5165 5163 5160 5158 5154 5151 5148 5145 5142 5139 5137 5135 5133 5131 5129 5128 5126 5124 5122 5120 5117 5115 5113 5110 5108 5105 5102 5100 5097 5095 5092 5090 5088 5086 5085 5084 5083 5082 5081 5080 5080 5080 5080 5080 5080 5081 5081 5082 5084 5085 5087 5088
5228 5228 5228 5227 5227 5227 5226 5225 5224 5223 5222 5220 5219 5217 5215 5213 5211 5209 5206 5204 5201 5198 5195 5192 5189 5186 5183 5180 5177 5174 5171 5168 5165 5162 5160 5158 5156 5153 5150 5147 5144 5141 5138 5135 5133 5131 5128 5127 5125 5123 5121 5119 5117 5115 5113 5111 5109 5106 5104 5102 5099 5097 5095 5092 5090 5088 5086 5085 5084 5083 5081 5080 5080 5079 5079 5079 5079 5079 5080 5080 5081 5082 5083 5084 5085
5224 5224 5224 5224 5223 5223 5222 5221 5220 5219 5218 5217 5215 5213 5211 5209 5207 5205 5202 5199 5197 5194 5191 5188 5185 5183 5180 5177 5174 5171 5168 5165 5162 5160 5158 5156 5153 5151 5149 5146 5143 5140 5137 5134 5132 5129 5127 5125 5123 5121 5119 5117 5115 5113 5111 5109 5107 5105 5103 5101 5099 5097 5094 5092 5090 5088 5086 5085 5084 5083 5082 5081 5080 5079 5079 5078 5078 5078 5078 5078 5079 5080 5080 5081 5083